Regional Weather Roundup
Issued by NWS

Home | Current Version | Previous Version | Text Only | Print | Product List | Glossary On
Versions: 1 2 3 4 5 6 7 8 9 10 11 12 13 14 15 16 17 18 19 20 21 22 23 24 25 26 27 28
000
ASUS44 KLIX 290913
RWRLA
LOUISIANA WEATHER ROUNDUP
NATIONAL WEATHER SERVICE NEW ORLEANS LA
400 AM CDT SAT APR 29 2017

NOTE: "FAIR" INDICATES FEW OR NO CLOUDS BELOW 12,000 FEET WITH NO
      SIGNIFICANT WEATHER AND/OR OBSTRUCTIONS TO VISIBILITY.
      SKY/WX - SKY CONDITION AND SIGNIFICANT WEATHER.
      TMP - AIR TEMPERATURE.    DP   - DEWPOINT TEMPERATURE.
      RH  - RELATIVE HUMIDITY.  PRES - PRESSURE.
      HX  - HEAT INDEX.         WCI  - WIND CHILL INDEX.

*  THESE STATIONS ARE NOT NWS OR FAA STATIONS AND ARE NOT UNDER
   NWS QUALITY CONTROL.

LAZ040-048-061>063-065-066-069-291000-
SOUTHEAST LOUISIANA

CITY           SKY/WX    TMP DP  RH WIND       PRES   REMARKS
N.O. INTL ARPT CLOUDY    77  73  87 SE13      29.90S
N.O. LAKEFRONT CLOUDY    78  74  87 SE15      29.91F
N.O. DOWNTOWN* NOT AVBL
RESERVE*       NOT AVBL
SLIDELL        CLOUDY    77  74  90 SE8       29.91F
BATON ROUGE    CLOUDY    78  72  81 SE12      29.87S
BOOTHVILLE     MOCLDY    76  75  97 SE12G20   29.91F FOG
BELLE CHASSE   CLOUDY   N/A N/A N/A SE10      29.91S
BOGALUSA*      NOT AVBL
GALLIANO*      CLOUDY    78  73  83 SE7G17    29.90S
NEW ROADS*     CLOUDY    77  72  84 SE13G23   29.86S
GONZALES*      CLOUDY    78  73  83 SE10      29.87S
HAMMOND*       CLOUDY    77  72  83 SE13G18   29.90S
HOUMA*         CLOUDY    78  74  87 SE17G24   29.89S
PORT FOURCHON* PTSUNNY   77  75  94 SE17G25   29.88F FOG

$$

LAZ041-044-053-054-291000-
SOUTHWEST LOUISIANA

CITY           SKY/WX    TMP DP  RH WIND       PRES   REMARKS
LAKE CHARLES   CLOUDY    77  74  90 SE20      29.78S
LAFAYETTE      CLOUDY    82  73  74 SE9G17    29.83F
PATTERSON      CLOUDY    78  74  87 SE9G18    29.87S
SALT POINT       N/A     78  73  84 SE14G21   29.83F
NEW IBERIA     CLOUDY    78  71  79 SE20      29.84F
CHENAULT AIRPK CLOUDY    65  64  93 SE18G24   29.78F

$$

LAZ027-028-291000-
CENTRAL LOUISIANA

CITY           SKY/WX    TMP DP  RH WIND       PRES   REMARKS
FORT POLK      CLOUDY    78  73  84 SE18G25   29.76F
ALEXANDRIA INT CLOUDY    78  72  81 SE20      29.77F
ALEXANDRIA     CLOUDY    78  73  84 SE12      29.81F

$$

LAZ001-002-291000-
NORTHWEST LOUISIANA

CITY           SKY/WX    TMP DP  RH WIND       PRES   REMARKS
SHREVEPORT     CLOUDY    79  72  79 S18G29    29.70F
BARKSDALE AFB  MOCLDY    78  71  80 S16G24    29.70F
DTN SHREVEPORT CLOUDY    80  71  74 S16G25    29.70F

$$

LAZ014-016-291000-
NORTHEAST LOUISIANA

CITY           SKY/WX    TMP DP  RH WIND       PRES   REMARKS
MONROE         CLOUDY    78  71  79 S10G23    29.78F
TALLULAH       MOCLDY    75  69  81 S13G22    29.83F

$$





USA.gov is the U.S. government's official web portal to all federal, state and local government web resources and services.